STARLINK-3891 (52650 NORAD) Tracking and Keplerian Element Data

This shows tracking and keplerian element data for the satellite.

Feedback or suggestion? Click here.




ElementValue
Catalog52650
NameSTARLINK-3891
Epoch Orbit130
Epoch Day167.08334491
Epoch Year2022
RAAN279.9807
Inclination53.2135
Eccentricity0.0001661
Argument of Perigee34.0994
Mean Anonmoly12.7336
Mean Motion15.73206218
Decay Rate1.33E-06
L11 52650U 22052BE 22167.08334491 .00000133 00000+0 53653-5 0 9992
L22 52650 53.2135 279.9807 0001661 34.0994 12.7336 15.73206218 1305

Live tracking and technical data element details for STARLINK-3891 (NORAD 52650). STARLINK-3891 can be tracked NOW for your location showing map with azimuth and elevation plus other details from your city location.

Track the satellite on the map from your city or location and see movement details for azimuth, elevation, latitude, longitude, range, height, and movement on the map or in text.







IsCatalogInMostPopularTable: catalog: 52650, numindb: 1
Update: records affected: 1



GetName: 52650 STARLINK-3891

Hit Count: updated at: Mon, 27 Jun 2022 05:55:57 GMT